This demonstration page uses our WeatherBlox Daily Observations layout. Learn more.

Left ArrowRight Arrow

Hourly Observations for December 9, 2015

Temp ( °F °C ) Dew Point ( °F °C ) Humidity (%) Winds ( mph kmh ) Pressure ( in mb ) Visibility ( mi km ) Precip ( " mm )
12:53 am 00:53 Clear 39 3.9 33 0.6 79 79 E 5 7 29.95 1014 10 16 N/A
1:53 am 01:53 Clear 38 3.3 33 0.6 83 83 E 3 6 29.93 1014 10 16 N/A
2:53 am 02:53 Clear 39 3.9 33 0.6 79 79 E 5 7 29.93 1014 10 16 N/A
3:53 am 03:53 Clear 39 3.9 33 0.6 79 79 NNE 3 6 29.91 1013 10 16 N/A
4:53 am 04:53 Mostly Cloudy 41 5 34 1.1 76 76 ENE 7 11 29.89 1012 10 16 N/A
5:53 am 05:53 Mostly Cloudy 42 5.6 35 1.7 76 76 ENE 6 9 29.88 1012 10 16 N/A
6:53 am 06:53 Cloudy 44 6.7 36 2.2 73 73 ESE 6 9 29.87 1012 10 16 N/A
7:53 am 07:53 Mostly Sunny 44 6.7 36 2.2 73 73 ESE 5 7 29.85 1011 10 16 N/A
8:53 am 08:53 Cloudy 49 9.4 37 2.8 64 64 N N/A 29.85 1011 10 16 N/A
9:53 am 09:53 Cloudy 51 10.6 38 3.3 61 61 SSW 8 13 29.86 1011 10 16 N/A
10:53 am 10:53 Cloudy 53 11.7 39 3.9 59 59 SW 6 9 29.85 1011 10 16 N/A
11:53 am 11:53 Cloudy 54 12.2 40 4.4 59 59 SSW 9 15 29.84 1010 10 16 N/A
12:05 pm 12:05 Cloudy 54 12.2 41 5 62 62 SW 7 11 29.83 1010 10 16 N/A
12:16 pm 12:16 Cloudy 55 12.8 41 5 59 59 VRB 6 9 29.80 1009 10 16 N/A
12:53 pm 12:53 Cloudy 55 12.8 42 5.6 62 62 SW 9 15 29.80 1009 10 16 N/A
1:46 pm 13:46 Cloudy 55 12.8 42 5.6 62 62 SSW 10 17 29.80 1009 10 16 N/A
1:53 pm 13:53 Cloudy 55 12.8 42 5.6 62 62 SSW 9 15 29.80 1009 10 16 N/A
2:29 pm 14:29 Cloudy 55 12.8 43 6.1 64 64 SW 10 17 29.80 1009 10 16 N/A
2:53 pm 14:53 Cloudy 55 12.8 43 6.1 64 64 SW 9 15 29.80 1009 10 16 N/A
3:53 pm 15:53 Cloudy 55 12.8 43 6.1 64 64 SW 9 15 29.80 1009 10 16 N/A
4:53 pm 16:53 Cloudy 55 12.8 43 6.1 64 64 WSW 7 11 29.83 1010 10 16 N/A
5:53 pm 17:53 Cloudy 51 10.6 43 6.1 74 74 N N/A 29.85 1011 10 16 N/A
6:53 pm 18:53 Clear 43 6.1 40 4.4 89 89 N N/A 29.89 1012 10 16 N/A
7:53 pm 19:53 Clear 41 5 39 3.9 93 93 N N/A 29.90 1013 9 14 N/A
8:53 pm 20:53 Clear 40 4.4 38 3.3 93 93 N N/A 29.91 1013 8 13 N/A
9:53 pm 21:53 Clear with Mist and Fog 38 3.3 36 2.2 93 93 N N/A 29.92 1013 6 10 N/A
10:53 pm 22:53 Clear 36 2.2 34 1.1 93 93 N N/A 29.93 1014 8 13 N/A
11:53 pm 23:53 Clear with Mist and Fog 34 1.1 32 undefined 92 92 N N/A 29.93 1014 6 10 N/A

Powered by AerisWeather